Probability
0 0 0 0 0 0 0 0 0 0 0 0 0 0 0 0 0 0 0 0 0 0 0 0 0 0 0 0 0 0 0 0 0 0 0 0 0 0 0 0 0 0 0 0
0 0 0 0 0 0 0 0 0 0 0 0 0 0 0 0 0 0 0 0 0 0 0 0 0 0 0 0 0 0 0 0 0 0 0 0 0 0 0 0 0 0 0 0
0 0 0 0 0 0 0 0 0 0 0 0 0 0 0 0 0 0 0 0 0 0 0 0 0 0 0 0 0 0 0 0 0 0 0 0 0 0 0 0 0 0 0 0
0 0 0 0 0 0 0 0 0 0 0 0 0 0 0 0 0 0 0 0 0 0 0 0 0 0 0 0 0 0 0 0 0 0 0 0 0 0 0 0 0 0 0 0
0 0 0 0 0 0 0 0 0 0 0 0 0 0 0 0 0 0 0 0 0 0 0 0 0 0 0 0 0 0 0 0 0 0 0 0 0 0 0 0 0 0 0 0
0 0 0 0 0 0 0 0 0 0 0 0 0 0 0 0 0 0 0 0 0 0 0 0 0 0 0 0 0 0 0 0 0 0 0 0 0 0 0 0 0 0 0 0
0 0 0 0 0 0 0 0 0 0 0 0 0 0 0 0 0 0 0 0 0 0 0 0 0 0 0 0 0 0 0 0 0 0 0 0 0 0 0 0 0 0 0 0
0 0 0 0 0 0 0 0 0 0 0 0 0 0 0 0 0 0 0 0 0 0 0 0 0 0 0 0 0 0 0 0 0 0 0 0 0 0 0 0 0 0 0 0
0 0 0 0 0 0 0 0 0 0 0 0 0 0 0 0 0 0 0 0 0 0 0 0 0 0 0 0 0 0 0 0 0 0 0 0 0 0 0 0 0 0 0 0
0 0 0 0 0 0 0 0 0 0 0 0 0 0 0 0 0 0 0 0 0 0 0 0 0 0 0 0 0 0 0 0 0 0 0 0 0 0 0 0 0 0 0 0
0 0 0 0 0 0 0 0 0 0 0 0 0 0 0 0 0 0 0 0 0 0 0 0 0 0 0 0 0 0 0 0 0 0 0 0 0 0 0 0 0 0 0 0
0 0 0 0 0 0 0 0 0 0 0 0 0 0 0 0 0 0 0 0 0 0 0 0 0 0 0 0 0 0 0 0 0 0 0 0 0 0 0 0 0 0 0 0
0 0 0 0 0 0 0 0 0 0 0 0 0 0 0 0 0 0 0 0 0 0 0 0 0 0 0 0 0 0 0 0 0 0 0 0 0 0 0 0 0 0 0 0
0 0 0 0 0 0 0 0 0 0 0 0 0 0 0 0 0 0 0 0 0 0 0 0 0 0 0 0 0 0 0 0 0 0 0 0 0 0 0 0 0 0 0 0
0 0 0 0 0 0 0 0 0 0 0 0 0 0 0 0 0 0 0 0 0 0 0 0 0 0 0 0 0 0 0 0 0 0 0 0 0 0 0 0 0 0 0 0
0 0 0 0 0 0 0 0 0 0 0 0 0 0 0 0 0 0 0 0 0 0 0 0 0 0 0 0 0 0 0 0 0 0 0 0 0 0 0 0 0 0 0 0
0 0 0 0 0 0 0 0 0 0 0 0 0 0 0 0 0 0 0 0 0 0 0 0 0 0 0 0 0 0 0 0 0 0 0 0 0 0 0 0 0 0 0 0
0 0 0 0 0 0 0 0 0 0 0 0 0 0 0 0 0 0 0 0 0 0 0 0 0 0 0 0 0 0 0 0 0 0 0 0 0 0 0 0 0 0 0 0
0 0 0 0 0 0 0 0 0 0 0 0 0 0 0 0 0 0 0 0 0 0 0 0 0 0 0 0 0 0 0 0 0 0 0 0 0 0 0 0 0 0 0 0
0 0 0 0 0 0 0 0 0 0 0 0 0 0 0 0 0 0 0 0 0 0 0 0 0 0 0 0 0 0 0 0 0 0 0 0 0 0 0 0 0 0 0 0
0 0 0 0 0 0 0 0 0 0 0 0 0 0 0 0 0 0 0 0 0 0 0 0 0 0 0 0 0 0 0 0 0 0 0 0 0 0 0 0 0 0 0 0
0 0 0 0 0 0 0 0 0 0 0 0 0 0 0 0 0 0 0 0 0 0 0 0 0 0 0 0 0 0 0 0 0 0 0 0 0 0 0 0 0 0 0 0
0 0 0 0 0 0 0 0 0 0 0 0 0 0 0 0 0 0 0 0 0 0 0 0 0 0 0 0 0 0 0 0 0 0 0 0 0 0 0 0 0 0 0 0
0 0 0 0 0 0 0 0 0 0 0 0 0 0 0 0 0 0 0 0 0 0 0 0 0 0 0 0 0 0 0 0 0 0 0 0 0 0 0 0 0 0 0 0
0 0 0 0 0 0 0 0 0 0 0 0 0 0 0 0 0 0 0 0 0 0 0 0 0 0 0 0 0 0 0 0 0 0 0 0 0 0 0 0 0 0 0 0
0 0 0 0 0 0 0 0 0 0 0 0 0 0 0 0 0 0 0 0 0 0 0 0 0 0 0 0 0 0 0 0 0 0 0 0 0 0 0 0 0 0 0 0
0 0 0 0 0 0 0 0 0 0 0 0 0 0 0 0 0 0 0 0 0 0 0 0 0 0 0 0 0 0 0 0 0 0 0 0 0 0 0 0 0 0 0 0
Wind_Speed
7 5 2 4 8 8 2 5 6 3 6 9 9 8 9 11 14 16 17 17 16 15 13 13 12 11 10 10 9 9 8 7 9 9 8 8 8 7 6 5 5 3 1 1
4 3 2 3 6 5 6 7 4 6 8 10 8 8 10 13 16 17 17 18 18 17 17 17 16 14 13 11 10 9 9 9 9 8 8 8 9 8 7 6 5 4 2 1
4 4 2 5 9 5 7 7 7 5 4 9 11 13 12 13 14 15 15 15 16 15 15 15 14 13 12 11 10 9 8 8 8 9 8 8 7 8 8 8 6 5 5 4
1 4 1 2 4 8 9 7 6 3 4 7 10 11 11 11 12 13 13 13 14 13 14 13 13 13 11 10 9 8 8 7 7 7 8 7 6 8 8 6 6 6 6 6
3 2 1 4 6 8 3 4 3 5 9 10 11 10 9 13 15 15 14 13 13 13 13 13 14 13 11 11 9 9 8 7 7 6 7 7 7 7 7 6 7 6 7 8
3 1 1 5 11 14 3 2 2 7 12 14 11 10 9 9 10 12 14 13 13 13 12 12 13 10 10 11 10 11 10 9 7 6 6 6 7 7 6 7 8 8 8 8
3 1 4 6 12 9 5 8 12 13 14 15 12 15 15 13 14 16 17 17 16 14 12 12 12 9 11 11 12 12 11 9 9 7 7 6 5 5 6 7 7 8 8 7
4 4 2 6 5 3 7 11 13 15 15 17 17 18 18 17 16 15 16 16 15 13 14 13 11 10 12 13 14 11 10 10 10 9 7 5 4 5 5 6 8 8 7 6
2 2 5 5 5 9 10 11 13 13 15 16 17 18 18 17 16 16 17 17 14 14 16 14 12 11 13 15 13 11 10 11 11 9 7 6 5 4 4 4 6 8 8 8
1 3 6 9 10 10 10 11 12 14 15 15 17 19 20 17 16 14 15 15 15 15 16 15 14 13 13 13 11 10 11 12 10 9 8 7 5 4 3 3 5 7 9 9
3 7 8 8 9 10 10 10 12 14 15 15 18 20 20 19 18 17 16 15 14 15 16 17 15 14 13 11 10 10 11 11 10 9 8 7 6 6 5 3 4 7 9 11
5 8 7 10 10 10 10 11 14 16 16 14 15 19 20 19 17 17 17 16 17 17 18 18 16 15 13 11 10 9 9 10 8 7 7 6 6 5 7 7 8 12 13 11
8 8 8 11 10 9 10 14 16 16 17 20 15 16 19 19 18 18 19 20 20 20 20 19 17 15 12 12 10 10 10 9 7 7 7 6 6 5 4 4 8 13 15 15
9 7 8 9 10 12 14 16 15 16 17 17 17 18 20 21 21 22 22 22 22 21 21 20 18 16 12 11 11 10 10 11 9 7 7 6 6 5 4 4 5 4 9 14
9 8 10 12 11 13 14 15 17 17 16 18 18 20 22 23 24 23 23 22 21 21 20 19 18 16 11 10 11 10 8 7 6 6 6 6 6 5 5 6 6 5 5 7
10 10 11 12 14 15 16 17 17 18 19 21 22 22 23 23 23 23 22 20 19 19 18 17 16 14 10 9 10 8 8 12 10 6 6 6 6 5 5 6 7 6 8 10
8 10 11 14 15 16 15 16 17 19 21 23 23 24 24 24 23 22 20 18 17 16 15 15 13 10 8 8 8 6 6 7 10 6 6 6 6 6 6 6 6 6 8 11
9 9 11 14 16 17 18 18 19 21 21 22 23 23 23 23 23 22 20 17 15 14 12 11 10 8 7 6 5 5 5 5 5 5 5 6 6 6 6 7 7 8 8 11
11 11 13 14 14 14 15 17 19 20 20 20 21 22 22 22 22 21 18 15 14 13 11 10 12 8 5 5 4 4 5 5 5 5 5 6 6 6 6 6 6 7 10 11
10 12 13 13 13 14 16 17 17 18 19 20 21 22 22 23 22 20 17 12 8 8 10 10 9 6 5 4 3 3 4 5 5 5 5 6 6 6 6 5 6 9 10 11
12 12 12 13 14 15 15 16 16 18 19 20 20 22 22 23 22 18 14 11 9 9 10 11 7 5 4 3 3 3 4 5 5 6 6 6 6 6 5 6 7 9 9 10
10 10 12 13 15 17 16 15 15 18 19 20 21 22 22 22 21 18 14 9 9 11 9 7 6 6 6 5 3 4 4 5 6 5 6 5 5 4 5 7 8 8 9 9
8 9 11 13 15 17 17 15 16 17 19 21 21 22 21 20 16 15 14 10 10 12 10 7 8 10 9 5 4 5 5 6 5 5 5 5 5 5 6 8 8 8 8 8
7 8 11 13 14 14 16 18 18 16 18 19 18 20 19 17 15 12 12 15 16 15 10 9 11 9 6 3 4 4 4 5 5 5 5 5 5 6 7 8 8 7 8 9
8 8 9 13 14 13 14 17 17 17 17 16 18 19 16 13 15 15 15 16 18 15 10 9 10 7 2 1 2 2 2 2 3 3 5 6 7 8 8 8 8 8 7 7
7 9 10 11 10 10 11 12 13 14 15 16 16 16 15 14 15 14 14 16 18 15 10 7 6 5 3 2 2 2 2 3 4 5 6 7 8 8 8 8 9 7 7 7
7 7 8 9 9 9 11 11 13 14 14 15 17 16 16 15 15 16 17 14 13 11 9 7 7 7 7 6 5 5 4 4 4 5 6 6 6 6 7 8 7 6 6 7
Wind_Direction
244 254 269 273 295 312 260 219 229 307 54 13 19 30 26 19 11 6 1 356 351 345 340 335 333 331 330 329 330 329 321 299 276 264 250 239 231 226 222 221 223 230 257 346
286 281 272 299 346 2 31 16 13 67 45 356 359 5 4 2 360 354 348 342 337 333 330 325 323 322 321 320 324 330 332 328 316 294 265 245 235 223 214 213 209 198 187 153
277 304 4 22 358 38 61 38 33 49 8 348 350 347 338 333 335 330 324 318 314 311 307 303 301 301 299 301 308 315 321 328 334 329 304 272 247 227 215 206 196 188 179 168
304 3 28 132 74 94 105 77 60 52 344 331 309 296 282 273 273 277 279 282 284 286 287 289 291 291 288 287 291 296 301 309 319 329 327 311 270 241 225 201 194 187 180 177
72 354 118 107 16 354 320 96 22 327 311 301 287 280 262 249 245 251 262 272 278 279 281 284 287 288 288 282 279 282 284 288 297 310 321 325 305 267 234 207 196 188 178 177
69 325 306 358 326 320 257 149 283 289 289 294 304 299 286 262 260 268 279 283 283 283 281 279 280 281 280 277 275 273 273 272 275 282 295 308 313 295 248 216 205 191 180 182
24 324 65 329 323 5 39 296 290 282 280 286 278 272 283 286 284 283 284 284 285 284 281 276 276 274 272 271 265 264 267 268 267 264 268 278 300 304 268 232 202 191 180 179
11 14 348 319 10 39 259 257 269 279 283 286 285 285 288 289 286 284 284 282 280 278 277 278 275 268 268 267 263 263 264 263 260 256 258 268 280 301 287 240 205 192 178 174
104 218 239 254 240 244 255 270 278 284 291 294 295 295 293 290 288 288 286 285 280 275 276 276 272 261 260 264 263 263 264 262 259 253 247 248 252 275 294 255 217 192 185 183
126 261 264 265 261 267 274 280 289 295 298 301 298 297 296 295 293 288 286 284 282 279 277 277 273 265 256 257 258 255 257 260 258 249 245 242 239 235 251 268 226 202 192 188
282 271 286 279 272 282 295 299 297 295 295 293 293 295 295 295 293 291 289 286 283 280 280 278 274 267 262 256 248 249 253 256 255 243 234 235 235 227 223 244 248 222 206 192
252 255 260 277 285 295 297 293 292 296 297 292 290 293 296 295 293 292 291 289 287 283 282 280 276 269 261 255 244 240 248 252 248 239 229 226 234 244 230 238 259 248 236 211
247 266 274 282 289 290 287 290 297 298 299 302 299 295 299 298 297 294 293 291 290 288 286 283 278 271 262 255 244 233 234 241 242 234 226 222 225 235 255 273 259 238 222 208
273 293 296 286 286 290 293 296 299 301 300 300 301 302 303 302 301 299 298 296 294 292 289 285 279 272 261 251 244 237 233 239 238 230 225 221 221 223 228 259 266 228 209 199
290 293 282 287 292 297 300 305 309 308 306 305 306 307 308 307 305 302 300 298 296 293 291 287 281 273 258 248 242 235 226 224 227 225 224 224 221 220 229 249 252 221 177 175
293 296 296 300 302 304 308 310 310 309 310 311 312 313 311 308 304 302 301 301 301 300 299 294 285 275 258 247 240 231 221 229 230 220 223 225 224 226 237 249 243 211 191 171
312 308 307 309 309 310 311 310 310 311 312 314 314 314 313 310 308 307 307 306 305 303 302 300 294 284 269 252 236 222 210 222 236 228 220 222 223 229 243 248 234 207 189 171
297 290 291 298 306 311 311 311 312 313 314 314 315 314 313 312 311 311 311 312 312 310 309 311 309 303 284 263 231 208 201 204 209 215 220 223 227 233 245 243 221 200 169 160
303 295 297 301 304 304 307 310 313 314 314 317 317 314 312 311 311 312 312 314 316 319 320 321 318 315 303 280 245 199 200 207 213 219 224 227 232 241 245 225 199 175 158 159
296 296 301 304 304 305 308 312 314 315 317 319 316 314 315 315 315 315 313 308 300 302 307 313 315 311 302 291 273 201 204 210 215 221 224 228 234 241 229 198 173 160 159 164
299 305 308 308 309 311 313 316 319 319 319 319 318 317 316 315 315 315 311 310 305 304 307 306 302 293 284 274 269 219 213 214 217 222 223 226 230 229 204 172 162 158 161 165
303 307 308 311 315 318 321 321 321 320 320 320 320 319 318 318 317 315 309 302 302 304 304 295 287 277 275 273 249 233 225 220 219 217 219 222 219 205 175 164 157 155 157 160
305 304 308 315 319 317 318 324 326 325 322 321 319 319 319 317 315 316 318 315 312 308 304 288 279 281 278 257 233 228 226 221 216 212 213 212 203 182 168 158 153 151 151 154
306 307 310 315 319 322 327 329 328 325 319 317 317 319 320 319 319 319 316 314 314 313 310 298 292 290 276 234 224 221 217 213 208 209 204 191 176 165 156 151 150 150 151 152
308 310 316 325 330 329 325 324 325 325 324 322 322 324 325 322 323 325 324 323 324 322 321 320 320 318 291 223 209 202 194 188 183 171 159 154 152 151 149 150 151 151 154 156
315 320 320 317 316 318 324 325 325 325 325 325 327 329 329 330 329 330 330 330 333 333 335 342 353 2 23 47 66 82 94 102 109 116 127 135 139 142 144 148 150 154 157 161
315 315 320 326 329 329 328 325 324 324 324 327 329 330 333 336 337 337 337 337 340 345 355 5 14 23 33 43 52 58 64 72 84 99 114 124 132 137 144 147 149 151 156 162